Wind_Speed
25 18 20 16 12 3 7 5 3 1 5 3 4 3 3 2 5 6 11 12 10 10 10 11 11 13 14 16 17 18 17 17 16 13 13 13 12 13 12 11 12 12 13 13
21 26 19 14 12 8 7 6 3 2 4 5 5 7 8 8 3 4 7 10 10 10 10 10 10 11 12 13 13 14 13 12 12 12 11 11 11 10 9 11 12 12 12 13
25 26 20 19 14 12 11 8 3 5 4 8 5 9 14 13 11 9 9 10 10 9 10 11 10 9 9 10 10 10 11 11 11 11 12 11 9 7 9 11 11 14 13 13
28 24 25 22 21 17 15 12 8 7 6 5 5 8 11 16 17 14 12 13 13 12 12 12 12 11 10 9 10 9 8 9 9 8 7 7 7 8 11 10 11 12 12 11
32 26 27 24 26 21 17 9 9 8 11 9 9 10 11 14 19 21 18 15 15 14 13 13 13 12 12 11 8 8 7 7 6 6 7 7 7 9 11 10 11 10 13 12
27 23 25 31 21 20 19 14 9 11 10 12 11 14 16 10 13 17 21 20 18 16 14 14 15 14 12 13 13 14 13 8 5 1 3 6 7 9 11 11 13 14 14 13
26 23 27 27 26 18 20 19 15 10 8 5 9 11 7 9 4 8 19 26 25 21 17 15 14 12 12 10 14 12 9 7 5 4 1 5 9 13 12 13 14 18 18 20
31 29 26 31 32 26 27 27 19 12 11 8 8 10 12 9 9 7 17 23 28 24 22 18 13 12 12 9 7 11 13 12 9 6 1 3 10 12 15 15 12 14 16 19
33 31 29 24 26 28 29 34 27 18 5 7 15 13 11 9 8 10 12 25 29 31 29 22 19 17 15 13 12 10 10 13 16 15 12 7 8 11 15 17 21 21 22 24
19 28 23 28 24 26 26 28 22 20 11 13 11 12 10 8 3 7 19 26 30 26 28 25 24 21 18 17 16 15 14 12 12 15 18 20 18 15 17 20 22 25 28 31
20 21 24 28 32 32 25 24 29 22 23 13 7 15 14 10 6 3 7 20 25 21 18 17 18 19 20 20 21 21 20 19 19 18 19 22 25 24 24 23 25 27 30 34
31 19 22 32 28 29 32 32 28 21 15 20 14 8 8 10 12 9 8 17 22 23 20 19 20 21 22 22 24 24 25 25 24 25 24 25 28 29 29 29 30 31 34 30
39 24 24 25 22 28 33 36 34 31 24 23 20 20 9 9 9 13 16 17 23 25 21 16 12 19 22 23 24 22 21 22 24 27 27 30 31 30 32 32 31 31 29 30
38 31 34 31 30 29 33 34 33 34 29 27 23 22 12 12 13 12 14 19 21 23 21 19 14 14 17 18 19 18 16 16 15 18 23 25 25 26 25 27 27 28 29 29
34 35 30 28 16 35 32 37 37 38 36 32 26 22 23 17 17 14 18 18 20 22 21 20 17 17 19 19 17 18 17 13 11 14 21 24 23 23 24 25 25 25 27 31
29 28 30 31 19 20 28 34 36 38 38 36 30 25 19 19 21 22 22 19 21 20 21 20 23 22 20 23 20 20 18 14 13 16 20 23 24 24 24 25 25 28 30 33
31 30 27 32 32 27 28 29 27 28 30 29 31 27 20 20 21 23 20 18 23 22 23 25 25 27 24 24 26 23 19 16 15 16 19 22 25 24 23 24 26 29 31 35
28 29 25 26 26 26 33 34 31 27 28 27 26 23 21 20 23 25 23 20 22 24 23 25 28 31 30 29 29 24 21 17 16 17 18 18 18 18 20 24 27 31 34 36
17 27 25 28 27 22 28 26 28 33 34 29 28 26 26 21 22 24 25 23 25 27 24 26 31 33 35 33 29 24 22 19 17 15 16 15 16 19 22 26 30 32 32 31
19 24 24 24 30 25 26 22 19 20 32 28 31 31 29 28 23 18 21 22 25 27 29 30 34 35 38 34 29 25 22 19 17 13 14 16 18 22 25 28 30 28 26 25
26 22 26 24 27 30 20 29 20 29 25 22 25 24 30 35 25 20 20 24 25 25 30 34 35 38 40 35 30 26 22 17 14 13 14 17 21 23 26 28 25 23 23 25
32 26 28 28 25 23 19 24 36 24 25 19 19 24 19 25 35 28 23 21 22 25 30 36 38 42 42 37 29 24 20 15 13 13 18 19 22 25 26 23 21 22 23 24
31 36 32 28 32 11 20 16 21 23 20 24 23 25 18 24 32 26 20 15 15 16 22 33 40 43 39 31 25 22 15 14 11 16 20 20 21 23 22 20 21 21 21 21
29 23 28 24 28 26 20 16 16 15 18 23 25 25 27 17 18 24 21 17 15 20 26 33 42 42 36 27 23 17 13 10 14 23 20 21 24 21 20 19 20 19 19 20
27 29 27 27 22 17 26 28 21 15 14 16 19 21 23 25 24 25 19 15 18 21 22 29 39 39 35 28 23 21 15 15 19 20 20 23 22 19 18 19 19 18 17 19
35 21 34 31 26 26 18 17 15 14 17 20 20 17 23 25 23 20 15 16 18 22 21 28 39 36 32 28 27 23 17 20 16 18 22 21 18 18 17 18 16 17 17 19
Wind_Direction
205 202 205 199 202 166 186 196 173 250 223 194 204 200 214 91 108 136 153 157 158 153 149 139 134 133 138 149 155 164 178 184 192 195 199 203 208 228 249 278 289 299 300 312
203 209 204 203 205 209 201 198 200 263 223 214 249 227 218 216 187 166 158 153 167 172 168 161 156 149 144 144 146 151 158 166 179 181 188 195 212 228 255 276 288 308 306 308
206 208 207 204 211 211 215 217 212 295 276 247 245 241 207 205 210 197 180 174 157 164 176 179 175 169 159 156 156 157 162 167 175 184 196 202 214 232 255 277 297 304 310 310
211 212 212 208 215 213 226 233 253 257 268 292 251 117 198 200 203 198 187 173 165 166 169 171 176 168 170 176 174 168 172 179 188 199 204 215 222 234 248 273 292 310 321 309
207 209 208 210 217 219 228 241 244 253 265 275 229 260 144 189 209 213 188 177 176 178 177 167 168 173 181 158 160 153 160 181 183 192 203 216 224 240 264 275 281 305 334 306
212 213 213 219 217 213 221 238 242 252 258 235 191 231 158 188 214 215 210 190 181 175 174 179 183 185 184 169 151 136 125 119 108 58 258 241 234 254 259 273 280 293 305 300
205 212 211 211 212 209 212 218 219 228 208 240 169 210 161 184 211 193 205 204 195 193 202 205 212 194 184 176 188 190 179 159 135 99 205 265 252 250 256 269 291 287 294 298
199 204 205 215 213 211 214 211 216 207 213 170 152 215 222 220 224 230 202 202 205 203 205 205 203 214 207 206 208 225 233 247 265 261 282 284 274 286 275 272 283 288 290 300
204 212 213 210 206 205 209 218 217 256 259 240 184 217 236 248 249 257 220 198 199 207 214 205 212 225 233 229 229 233 244 244 256 261 272 286 290 280 279 274 270 281 293 300
202 204 201 202 198 201 204 207 211 225 227 230 174 215 209 185 218 297 204 205 196 201 214 219 225 235 242 247 248 247 248 254 260 268 272 275 279 285 282 284 286 288 294 298
207 203 198 198 199 197 198 200 216 226 229 220 218 206 213 214 227 256 184 205 193 196 201 220 222 227 234 241 248 254 258 260 265 269 273 277 278 280 282 288 291 297 295 296
198 204 194 202 211 207 213 208 208 218 200 240 281 229 198 215 221 220 200 191 187 198 203 213 227 223 220 227 236 243 250 256 263 268 272 273 272 276 281 283 288 292 295 298
198 209 201 195 203 211 209 213 216 220 230 222 228 237 213 214 219 219 207 196 198 198 203 210 218 236 230 228 229 231 240 247 253 259 266 272 278 282 282 284 286 289 293 295
198 205 209 205 210 209 208 211 214 218 219 230 228 247 231 221 213 216 214 204 206 207 213 215 210 221 220 223 230 237 240 244 253 262 268 271 274 277 279 282 288 293 296 298
197 210 211 219 216 212 212 211 214 218 226 229 241 233 238 231 224 234 223 223 227 219 219 221 216 220 221 220 225 233 238 233 236 249 262 271 277 283 287 289 293 298 299 301
198 213 210 215 206 204 211 218 220 225 228 236 236 240 236 233 234 234 226 232 235 232 228 225 222 220 228 227 229 233 227 225 231 248 261 275 283 286 291 296 299 300 301 299
200 203 203 217 215 221 228 211 212 219 223 226 229 229 233 235 241 240 232 238 235 237 234 234 233 226 224 233 233 228 219 227 240 248 258 268 277 281 285 290 293 295 298 303
192 195 204 215 210 221 233 223 221 221 222 217 223 221 224 237 241 244 237 234 229 233 236 236 239 234 228 231 230 226 220 233 243 251 261 268 276 289 295 296 300 301 304 307
181 195 205 215 206 218 224 208 208 216 223 220 222 226 229 228 235 239 238 228 229 229 236 236 236 237 233 228 228 221 226 237 244 254 264 277 288 293 302 305 304 305 309 313
188 185 201 205 224 223 217 212 207 213 230 227 227 228 225 224 232 239 227 221 225 228 236 235 234 237 231 225 224 222 228 235 243 263 284 292 297 300 306 309 309 312 313 313
190 193 203 209 219 232 223 221 214 217 221 224 221 221 224 232 227 233 234 230 232 234 235 235 233 235 227 223 224 223 230 238 250 268 292 299 300 306 311 309 309 310 311 313
194 191 200 207 214 233 218 213 214 235 226 223 221 224 232 235 222 230 236 245 243 246 247 237 232 229 224 221 219 223 232 247 267 297 308 306 308 310 311 305 309 312 312 313
209 206 202 207 211 193 213 213 231 235 233 225 229 237 256 230 218 221 227 239 239 250 257 256 241 230 221 216 220 228 240 266 290 312 297 303 310 307 303 303 311 310 313 317
208 204 212 213 215 218 211 211 222 233 235 235 236 235 242 218 223 223 222 240 261 263 263 254 234 222 217 215 219 224 242 269 294 291 297 304 303 301 297 305 306 313 322 329
217 218 213 218 215 220 230 234 229 230 241 242 242 236 227 227 217 217 232 261 277 276 260 247 225 217 212 214 220 226 253 263 269 284 293 296 298 294 297 307 312 326 333 332
212 216 222 224 227 230 229 234 229 237 240 241 241 227 215 206 215 231 253 269 278 272 245 233 217 210 214 220 224 235 236 273 278 287 288 293 292 292 305 308 320 332 335 330
Height
3192 3197 3197 3199 3200 3200 3203 3205 3206 3208 3209 3210 3211 3212 3210 3210 3209 3210 3210 3211 3211 3212 3213 3214 3214 3214 3215 3215 3217 3218 3220 3222 3224 3226 3228 3230 3231 3232 3232 3232 3231 3230 3230 3229
3190 3191 3195 3197 3199 3202 3203 3204 3206 3207 3208 3209 3209 3210 3211 3210 3211 3211 3211 3211 3211 3213 3214 3215 3215 3216 3217 3218 3219 3221 3222 3224 3225 3226 3228 3230 3231 3232 3231 3231 3230 3229 3228 3227
3185 3189 3193 3195 3197 3200 3201 3203 3204 3207 3206 3206 3206 3205 3208 3209 3211 3211 3211 3212 3212 3213 3214 3215 3216 3217 3218 3219 3220 3222 3223 3224 3226 3227 3228 3229 3230 3231 3231 3230 3229 3228 3227 3226
3183 3186 3188 3192 3195 3199 3199 3201 3204 3205 3206 3201 3202 3198 3203 3206 3208 3210 3211 3212 3213 3214 3215 3216 3217 3218 3219 3219 3220 3222 3223 3224 3225 3226 3227 3228 3229 3229 3228 3228 3228 3227 3226 3225
3177 3179 3184 3188 3192 3196 3199 3199 3202 3204 3203 3203 3202 3200 3199 3203 3206 3207 3210 3212 3212 3214 3215 3217 3217 3218 3219 3221 3221 3222 3222 3223 3224 3225 3226 3226 3227 3227 3227 3227 3226 3225 3225 3224
3176 3176 3182 3185 3190 3193 3196 3199 3201 3202 3201 3199 3195 3198 3195 3201 3202 3205 3208 3211 3212 3213 3215 3216 3217 3218 3219 3221 3222 3222 3223 3224 3224 3225 3225 3225 3226 3225 3225 3225 3224 3223 3222 3222
3168 3170 3175 3179 3185 3189 3192 3197 3196 3196 3195 3189 3194 3198 3192 3198 3200 3202 3204 3207 3209 3211 3213 3215 3216 3218 3218 3220 3221 3222 3222 3223 3224 3224 3224 3225 3224 3223 3223 3223 3222 3221 3220 3219
3161 3166 3168 3171 3178 3184 3187 3190 3187 3190 3183 3183 3193 3193 3195 3196 3197 3198 3200 3203 3207 3209 3211 3213 3215 3216 3218 3219 3221 3222 3222 3222 3223 3224 3224 3223 3223 3222 3222 3221 3220 3218 3216 3215
3154 3159 3163 3168 3174 3179 3182 3184 3186 3184 3184 3179 3185 3191 3193 3193 3194 3194 3195 3197 3201 3204 3207 3210 3212 3213 3216 3218 3219 3221 3221 3222 3221 3222 3222 3221 3221 3220 3219 3217 3216 3214 3213 3211
3150 3155 3158 3164 3170 3174 3176 3182 3185 3184 3179 3180 3181 3185 3186 3190 3191 3190 3189 3192 3197 3201 3204 3207 3209 3211 3213 3215 3217 3218 3219 3220 3220 3220 3220 3219 3218 3217 3216 3215 3213 3212 3209 3207
3146 3149 3154 3159 3158 3164 3171 3172 3177 3177 3178 3175 3176 3180 3184 3187 3190 3189 3188 3191 3195 3199 3202 3205 3207 3209 3211 3212 3214 3216 3216 3217 3217 3217 3217 3215 3214 3213 3212 3211 3209 3207 3204 3201
3140 3145 3146 3150 3156 3161 3165 3168 3173 3173 3177 3176 3174 3175 3180 3185 3186 3188 3189 3191 3194 3198 3200 3202 3204 3205 3207 3209 3210 3212 3212 3213 3213 3213 3213 3212 3209 3208 3207 3206 3204 3202 3199 3196
3134 3136 3141 3146 3152 3153 3155 3161 3166 3169 3171 3170 3175 3176 3178 3182 3185 3186 3187 3189 3192 3195 3197 3200 3201 3202 3204 3205 3206 3207 3208 3209 3209 3209 3209 3206 3205 3205 3203 3201 3199 3197 3193 3190
3128 3132 3133 3133 3141 3148 3152 3155 3160 3163 3164 3167 3169 3174 3176 3179 3183 3184 3185 3187 3189 3192 3194 3196 3199 3200 3201 3202 3203 3204 3205 3206 3206 3206 3205 3203 3201 3200 3198 3196 3194 3191 3188 3184
3122 3125 3130 3133 3134 3138 3144 3148 3153 3155 3160 3161 3166 3169 3173 3176 3180 3183 3183 3185 3186 3188 3191 3193 3195 3197 3198 3199 3200 3201 3202 3203 3203 3203 3201 3199 3197 3196 3193 3191 3188 3185 3182 3178
3116 3120 3126 3130 3134 3135 3138 3142 3146 3150 3154 3158 3162 3165 3168 3173 3176 3177 3179 3181 3183 3185 3187 3189 3191 3193 3194 3195 3196 3197 3199 3199 3199 3198 3197 3195 3193 3191 3188 3186 3183 3180 3176 3172
3110 3115 3120 3123 3130 3135 3134 3135 3140 3146 3149 3152 3156 3162 3166 3168 3170 3172 3174 3176 3178 3180 3182 3184 3186 3188 3189 3190 3192 3193 3194 3195 3195 3194 3192 3190 3189 3186 3184 3181 3178 3174 3169 3164
3103 3109 3116 3119 3126 3122 3122 3131 3137 3141 3144 3148 3153 3157 3160 3163 3164 3166 3168 3170 3172 3174 3176 3179 3181 3183 3184 3185 3186 3188 3190 3191 3190 3189 3188 3186 3184 3181 3178 3176 3172 3167 3162 3158
3099 3104 3110 3112 3113 3118 3121 3124 3128 3132 3137 3142 3146 3151 3154 3156 3158 3159 3162 3164 3167 3168 3170 3173 3175 3176 3177 3179 3181 3184 3186 3187 3186 3184 3182 3180 3178 3176 3172 3168 3165 3161 3156 3151
3094 3098 3104 3108 3107 3105 3116 3120 3125 3130 3128 3135 3140 3143 3147 3149 3151 3155 3156 3158 3160 3161 3163 3165 3167 3169 3171 3174 3176 3179 3181 3180 3179 3179 3178 3176 3174 3170 3167 3163 3160 3155 3149 3146
3088 3093 3097 3101 3103 3102 3108 3116 3119 3120 3125 3128 3131 3135 3139 3140 3147 3149 3150 3152 3153 3154 3156 3157 3161 3163 3165 3167 3170 3172 3174 3174 3174 3173 3172 3170 3168 3165 3161 3158 3154 3149 3146 3142
3079 3085 3089 3096 3099 3098 3103 3109 3108 3114 3119 3123 3125 3129 3131 3134 3136 3141 3144 3146 3147 3149 3150 3151 3152 3154 3157 3160 3164 3167 3169 3170 3170 3169 3167 3165 3163 3160 3156 3153 3149 3146 3142 3138
3077 3076 3082 3087 3088 3092 3097 3103 3106 3110 3113 3116 3120 3123 3125 3125 3130 3135 3139 3141 3142 3143 3144 3144 3146 3149 3152 3157 3161 3163 3165 3165 3163 3162 3163 3159 3155 3154 3152 3149 3145 3142 3138 3134
3069 3074 3077 3082 3084 3089 3094 3098 3102 3104 3106 3109 3112 3116 3119 3122 3126 3130 3133 3134 3136 3136 3135 3135 3138 3142 3148 3153 3156 3158 3159 3157 3156 3157 3155 3152 3150 3148 3147 3144 3141 3138 3133 3129
3066 3069 3070 3075 3081 3084 3088 3093 3098 3100 3101 3103 3105 3108 3112 3117 3121 3124 3126 3128 3128 3128 3128 3129 3133 3138 3142 3146 3149 3150 3151 3150 3150 3149 3148 3147 3145 3144 3142 3139 3136 3132 3127 3125
3058 3063 3065 3069 3077 3080 3085 3089 3092 3095 3097 3098 3100 3103 3106 3111 3115 3118 3120 3121 3122 3121 3122 3123 3128 3133 3137 3141 3142 3143 3144 3145 3145 3145 3144 3143 3140 3140 3136 3134 3130 3126 3123 3121